Location: Bratislava
(0.0000°N, 17.1167°E)
Time: 03:07:38
(UTC+01:00)

NOSS 3-3 (C) - Pass Details

Date: 24 January 2021
Orbit: 810 x 1402 km, 63.4° (Epoch: 01 March)

Event Time Altitude Azimuth Distance (km) Brightness Sun altitude
Rises 19:41:27 0° 198° (SSW) 3,397 7.4 -23.0°
Reaches altitude 10° 19:43:58 10° 195° (SSW) 2,424 6.5 -23.6°
Maximum altitude 19:49:24 65° 113° (ESE) 884 3.5 -24.9°
Enters shadow 19:49:36 65° 100° (E) 888 3.5 -24.9°
